Hourly Data Report for June 16, 2017

FISHER BRANCH (AUT)
MANITOBA

51°05'00.100" N
97°33'16.200" W
253.00 m
50309J6
71442
WSZ

Download Data

Hourly Data (June 2017)
Hourly Data Report for June 16, 2017
TIME
LST
Temp Definition
°C
Dew Point Definition
°C
Rel Hum Definition
%
Precip. Amount Definition
mm

Wind Dir Definition
10's deg

Wind Spd Definition
km/h
Visibility Definition
km
Stn Press Definition
kPa
Hmdx Definition


Wind Chill Definition


Weather Definition


00:00 12.3 10.1 86 0.0 26 11   97.14     LegendNANA
01:00 12.3 9.6 84 0.0 27 12   97.13     LegendNANA
02:00 11.9 9.4 85 0.0 28 11   97.12     LegendNANA
03:00 11.5 8.8 83 0.0 28 15   97.12     LegendNANA
04:00 11.1 8.8 86 0.0 28 11   97.10     LegendNANA
05:00 10.8 9.2 90 0.0 29 15   97.12     LegendNANA
06:00 11.2 9.5 89 0.0 29 17   97.16     LegendNANA
07:00 11.2 10.1 93 0.0 26 11   97.18     LegendNANA
08:00 12.8 9.8 83 0.0 29 20   97.19     LegendNANA
09:00 12.7 9.9 83 0.0 29 19   97.23     LegendNANA
10:00 13.8 9.7 77 0.0 30 20   97.19     LegendNANA
11:00 14.3 10.1 76 0.0 29 19   97.21     LegendNANA
12:00 14.4 10.2 76 0.0 31 15   97.22     LegendNANA
13:00 14.8 10.0 73 0.0 28 13   97.22     LegendNANA
14:00 15.2 10.8 75 0.0 27 13   97.22     LegendNANA
15:00 15.8 10.6 71 0.0 31 11   97.20     LegendNANA
16:00 15.8 10.7 72 0.0 28 12   97.21     LegendNANA
17:00 13.3 11.4 88 0.0 32 17   97.24     LegendNANA
18:00 13.5 12.0 91 0.0 36 7   97.24     LegendNANA
19:00 13.0 11.9 93 0.0 34 6   97.25     LegendNANA
20:00 12.8 11.3 91 0.5 35 7   97.25     LegendNANA
21:00 12.3 10.3 88 0.0 35 8   97.29     LegendNANA
22:00 11.7 10.0 89 0.0 34 9   97.29     LegendNANA
23:00 11.0 9.3 89 0.0 33 7   97.29     LegendNANA

Notes on Data Quality.

Legend

  • E = Estimated
  • M = Missing
  • NA = Not Available*
  • [empty] = Indicates an unobserved value
Date modified: